Find Starlink 31656

NORAD ID: 60286 Int'l Des: 2024-132 Owner: SPXS Country: US Constellation: starlink operational
LEOCIRCULAR

Live-Position

3D-Globus wird geladen...

Über Starlink 31656

Beschreibung wird geladen...

Nächste Überflüge

Passes for default location (London). Set your location on the main map for personalized predictions.

Höhenverlauf

Loading altitude history...

Zweizeiliger Elementsatz

1 60286U 24132J 26105.78893340 .00000188 00000-0 18454-4 0 9993
2 60286 53.1604 239.8868 0000694 57.2178 302.8889 15.30191790 97242
Epoch: 15. Apr. 2026 • Age: 9 hours

Aktueller Status

Höhe 488.2 km
Geschwindigkeit 7.62 km/s
Subsatellitenpunkt -39.02°S, 65.07°W
Startdatum 28. Juli 2024
Alter 1.7 years
Typ internet

Technische Details

Klassifizierung Payload
Masse 730.00 kg
Trockenmasse 700.00 kg
Gesamtmasse 730.00 kg
Länge 0.30 m
Durchmesser 4.10 m
Spannweite 29.00 m
Form Box + pan
Hersteller SPXS
Bus-Typ Starlink V2M
Phasenstatus In Orbit
Besitzer/Staat SPXS/US

Most Searched